Time,TemperatureF,DewpointF,PressureIn,WindDirection,WindDirectionDegrees,WindSpeedMPH,WindSpeedGustMPH,Humidity,HourlyPrecipIn,Conditions,Clouds,dailyrainin,SoftwareType,DateUTC
2013-10-22 00:00:00,50.4,39.5,30.09,West,270,2.0,-999.0,66,0.00,,,0.00,Wunderground v.1.15,2013-10-22 05:00:00,
2013-10-22 00:05:00,50.4,39.5,30.09,West,270,2.0,-999.0,66,0.00,,,0.00,Wunderground v.1.15,2013-10-22 05:05:00,
2013-10-22 00:10:00,50.4,39.5,30.09,West,270,2.0,-999.0,66,0.00,,,0.00,Wunderground v.1.15,2013-10-22 05:10:00,
2013-10-22 00:15:00,50.4,39.5,30.09,West,270,2.0,-999.0,66,0.00,,,0.00,Wunderground v.1.15,2013-10-22 05:15:00,
2013-10-22 00:20:00,50.4,39.5,30.09,West,270,2.0,-999.0,66,0.00,,,0.00,Wunderground v.1.15,2013-10-22 05:20:00,
2013-10-22 00:25:00,50.4,39.5,30.09,West,270,2.0,-999.0,66,0.00,,,0.00,Wunderground v.1.15,2013-10-22 05:25:00,
2013-10-22 00:30:00,50.4,39.5,30.09,West,270,2.0,-999.0,66,0.00,,,0.00,Wunderground v.1.15,2013-10-22 05:30:00,
2013-10-22 00:35:00,50.4,39.5,30.09,West,270,2.0,-999.0,66,0.00,,,0.00,Wunderground v.1.15,2013-10-22 05:35:00,
2013-10-22 00:40:00,50.4,39.5,30.09,West,270,2.0,-999.0,66,0.00,,,0.00,Wunderground v.1.15,2013-10-22 05:40:00,
2013-10-22 00:45:00,50.9,39.5,30.09,West,270,2.0,-999.0,65,0.00,,,0.00,Wunderground v.1.15,2013-10-22 05:45:00,
2013-10-22 00:50:00,50.9,39.5,30.09,West,270,2.0,-999.0,65,0.00,,,0.00,Wunderground v.1.15,2013-10-22 05:50:00,
2013-10-22 00:55:00,50.9,39.5,30.09,West,270,2.0,-999.0,65,0.00,,,0.00,Wunderground v.1.15,2013-10-22 05:55:00,
2013-10-22 01:00:00,50.9,39.5,30.09,West,270,2.0,-999.0,65,0.00,,,0.00,Wunderground v.1.15,2013-10-22 06:00:00,
2013-10-22 01:05:00,50.9,39.5,30.09,West,270,2.0,-999.0,65,0.00,,,0.00,Wunderground v.1.15,2013-10-22 06:05:00,
2013-10-22 01:10:00,50.9,39.5,30.09,West,270,2.0,-999.0,65,0.00,,,0.00,Wunderground v.1.15,2013-10-22 06:10:00,
2013-10-22 01:15:00,48.3,39.0,30.10,West,270,2.0,-999.0,70,0.00,,,0.00,Wunderground v.1.15,2013-10-22 06:15:00,
2013-10-22 01:20:00,48.3,39.0,30.10,West,270,2.0,-999.0,70,0.00,,,0.00,Wunderground v.1.15,2013-10-22 06:20:00,
2013-10-22 01:25:00,48.3,39.0,30.10,West,270,2.0,-999.0,70,0.00,,,0.00,Wunderground v.1.15,2013-10-22 06:25:00,
2013-10-22 01:30:00,48.3,39.0,30.10,West,270,2.0,-999.0,70,0.00,,,0.00,Wunderground v.1.15,2013-10-22 06:30:00,
2013-10-22 01:35:00,48.3,39.0,30.10,West,270,2.0,-999.0,70,0.00,,,0.00,Wunderground v.1.15,2013-10-22 06:35:00,
2013-10-22 01:40:00,48.3,39.0,30.10,West,270,2.0,-999.0,70,0.00,,,0.00,Wunderground v.1.15,2013-10-22 06:40:00,
2013-10-22 01:45:00,46.0,38.2,30.10,West,270,2.0,-999.0,74,0.00,,,0.00,Wunderground v.1.15,2013-10-22 06:45:00,
2013-10-22 01:50:00,46.0,38.2,30.10,West,270,2.0,-999.0,74,0.00,,,0.00,Wunderground v.1.15,2013-10-22 06:50:00,
2013-10-22 01:55:00,46.0,38.2,30.10,West,270,2.0,-999.0,74,0.00,,,0.00,Wunderground v.1.15,2013-10-22 06:55:00,
2013-10-22 02:00:00,46.0,38.2,30.10,West,270,2.0,-999.0,74,0.00,,,0.00,Wunderground v.1.15,2013-10-22 07:00:00,
2013-10-22 02:05:00,46.0,38.2,30.10,West,270,2.0,-999.0,74,0.00,,,0.00,Wunderground v.1.15,2013-10-22 07:05:00,
2013-10-22 02:10:00,46.0,38.2,30.10,West,270,2.0,-999.0,74,0.00,,,0.00,Wunderground v.1.15,2013-10-22 07:10:00,
2013-10-22 02:15:00,46.2,38.4,30.11,West,270,2.0,-999.0,74,0.00,,,0.00,Wunderground v.1.15,2013-10-22 07:15:00,
2013-10-22 02:20:00,46.2,38.4,30.11,West,270,2.0,-999.0,74,0.00,,,0.00,Wunderground v.1.15,2013-10-22 07:20:00,
2013-10-22 02:25:00,46.2,38.4,30.11,West,270,2.0,-999.0,74,0.00,,,0.00,Wunderground v.1.15,2013-10-22 07:25:00,
2013-10-22 02:30:00,46.2,38.4,30.11,West,270,2.0,-999.0,74,0.00,,,0.00,Wunderground v.1.15,2013-10-22 07:30:00,
2013-10-22 02:35:00,46.2,38.4,30.11,West,270,2.0,-999.0,74,0.00,,,0.00,Wunderground v.1.15,2013-10-22 07:35:00,
2013-10-22 02:40:00,46.2,38.4,30.11,West,270,2.0,-999.0,74,0.00,,,0.00,Wunderground v.1.15,2013-10-22 07:40:00,
2013-10-22 02:45:00,46.2,38.4,30.12,West,270,3.0,-999.0,74,0.00,,,0.00,Wunderground v.1.15,2013-10-22 07:45:00,
2013-10-22 02:50:00,46.2,38.4,30.12,West,270,3.0,-999.0,74,0.00,,,0.00,Wunderground v.1.15,2013-10-22 07:50:00,
2013-10-22 02:55:00,46.2,38.4,30.12,West,270,3.0,-999.0,74,0.00,,,0.00,Wunderground v.1.15,2013-10-22 07:55:00,
2013-10-22 03:00:00,46.2,38.4,30.12,West,270,3.0,-999.0,74,0.00,,,0.00,Wunderground v.1.15,2013-10-22 08:00:00,
2013-10-22 03:05:00,46.2,38.4,30.12,West,270,3.0,-999.0,74,0.00,,,0.00,Wunderground v.1.15,2013-10-22 08:05:00,
2013-10-22 03:10:00,46.2,38.4,30.12,West,270,3.0,-999.0,74,0.00,,,0.00,Wunderground v.1.15,2013-10-22 08:10:00,
2013-10-22 03:15:00,45.5,37.7,30.11,West,270,2.0,-999.0,74,0.00,,,0.00,Wunderground v.1.15,2013-10-22 08:15:00,
2013-10-22 03:20:00,45.5,37.7,30.11,West,270,2.0,-999.0,74,0.00,,,0.00,Wunderground v.1.15,2013-10-22 08:20:00,
2013-10-22 03:25:00,45.5,37.7,30.11,West,270,2.0,-999.0,74,0.00,,,0.00,Wunderground v.1.15,2013-10-22 08:25:00,
2013-10-22 03:30:00,45.5,37.7,30.11,West,270,2.0,-999.0,74,0.00,,,0.00,Wunderground v.1.15,2013-10-22 08:30:00,
2013-10-22 03:35:00,45.5,37.7,30.11,West,270,2.0,-999.0,74,0.00,,,0.00,Wunderground v.1.15,2013-10-22 08:35:00,
2013-10-22 03:40:00,45.5,37.7,30.11,West,270,2.0,-999.0,74,0.00,,,0.00,Wunderground v.1.15,2013-10-22 08:40:00,
2013-10-22 03:45:00,44.2,37.1,30.11,West,270,2.0,-999.0,76,0.00,,,0.00,Wunderground v.1.15,2013-10-22 08:45:00,
2013-10-22 03:50:00,44.2,37.1,30.11,West,270,2.0,-999.0,76,0.00,,,0.00,Wunderground v.1.15,2013-10-22 08:50:00,
2013-10-22 03:55:00,44.2,37.1,30.11,West,270,2.0,-999.0,76,0.00,,,0.00,Wunderground v.1.15,2013-10-22 08:55:00,
2013-10-22 04:00:00,44.2,37.1,30.11,West,270,2.0,-999.0,76,0.00,,,0.00,Wunderground v.1.15,2013-10-22 09:00:00,
2013-10-22 04:05:00,44.2,37.1,30.11,West,270,2.0,-999.0,76,0.00,,,0.00,Wunderground v.1.15,2013-10-22 09:05:00,
2013-10-22 04:10:00,44.2,37.1,30.11,West,270,2.0,-999.0,76,0.00,,,0.00,Wunderground v.1.15,2013-10-22 09:10:00,
2013-10-22 04:15:00,42.7,36.3,30.10,West,270,0.0,-999.0,78,0.00,,,0.00,Wunderground v.1.15,2013-10-22 09:15:00,
2013-10-22 04:20:00,42.7,36.3,30.10,West,270,0.0,-999.0,78,0.00,,,0.00,Wunderground v.1.15,2013-10-22 09:20:00,
2013-10-22 04:25:00,42.7,36.3,30.10,West,270,0.0,-999.0,78,0.00,,,0.00,Wunderground v.1.15,2013-10-22 09:25:00,
2013-10-22 04:30:00,42.7,36.3,30.10,West,270,0.0,-999.0,78,0.00,,,0.00,Wunderground v.1.15,2013-10-22 09:30:00,
2013-10-22 04:35:00,42.7,36.3,30.10,West,270,0.0,-999.0,78,0.00,,,0.00,Wunderground v.1.15,2013-10-22 09:35:00,
2013-10-22 04:40:00,42.7,36.3,30.10,West,270,0.0,-999.0,78,0.00,,,0.00,Wunderground v.1.15,2013-10-22 09:40:00,
2013-10-22 04:45:00,41.3,35.6,30.10,West,270,1.0,-999.0,80,0.00,,,0.00,Wunderground v.1.15,2013-10-22 09:45:00,
2013-10-22 04:50:00,41.3,35.6,30.10,West,270,1.0,-999.0,80,0.00,,,0.00,Wunderground v.1.15,2013-10-22 09:50:00,
2013-10-22 04:55:00,41.3,35.6,30.10,West,270,1.0,-999.0,80,0.00,,,0.00,Wunderground v.1.15,2013-10-22 09:55:00,
2013-10-22 05:00:00,41.3,35.6,30.10,West,270,1.0,-999.0,80,0.00,,,0.00,Wunderground v.1.15,2013-10-22 10:00:00,
2013-10-22 05:05:00,41.3,35.6,30.10,West,270,1.0,-999.0,80,0.00,,,0.00,Wunderground v.1.15,2013-10-22 10:05:00,
2013-10-22 05:10:00,41.3,35.6,30.10,West,270,1.0,-999.0,80,0.00,,,0.00,Wunderground v.1.15,2013-10-22 10:10:00,
2013-10-22 05:15:00,42.0,36.3,30.09,West,270,1.0,-999.0,80,0.00,,,0.00,Wunderground v.1.15,2013-10-22 10:15:00,
2013-10-22 05:20:00,42.0,36.3,30.09,West,270,1.0,-999.0,80,0.00,,,0.00,Wunderground v.1.15,2013-10-22 10:20:00,
2013-10-22 05:25:00,42.0,36.3,30.09,West,270,1.0,-999.0,80,0.00,,,0.00,Wunderground v.1.15,2013-10-22 10:25:00,
2013-10-22 05:30:00,42.0,36.3,30.09,West,270,1.0,-999.0,80,0.00,,,0.00,Wunderground v.1.15,2013-10-22 10:30:00,
2013-10-22 05:35:00,42.0,36.3,30.09,West,270,1.0,-999.0,80,0.00,,,0.00,Wunderground v.1.15,2013-10-22 10:35:00,
2013-10-22 05:40:00,42.0,36.3,30.09,West,270,1.0,-999.0,80,0.00,,,0.00,Wunderground v.1.15,2013-10-22 10:40:00,
2013-10-22 05:45:00,41.6,36.2,30.11,West,270,0.0,-999.0,81,0.00,,,0.00,Wunderground v.1.15,2013-10-22 10:45:00,
2013-10-22 05:50:00,41.6,36.2,30.11,West,270,0.0,-999.0,81,0.00,,,0.00,Wunderground v.1.15,2013-10-22 10:50:00,
2013-10-22 05:55:00,41.6,36.2,30.11,West,270,0.0,-999.0,81,0.00,,,0.00,Wunderground v.1.15,2013-10-22 10:55:00,
2013-10-22 06:00:00,41.6,36.2,30.11,West,270,0.0,-999.0,81,0.00,,,0.00,Wunderground v.1.15,2013-10-22 11:00:00,
2013-10-22 06:05:00,41.6,36.2,30.11,West,270,0.0,-999.0,81,0.00,,,0.00,Wunderground v.1.15,2013-10-22 11:05:00,
2013-10-22 06:10:00,41.6,36.2,30.11,West,270,0.0,-999.0,81,0.00,,,0.00,Wunderground v.1.15,2013-10-22 11:10:00,
2013-10-22 06:15:00,41.3,36.2,30.12,West,270,0.0,-999.0,82,0.00,,,0.00,Wunderground v.1.15,2013-10-22 11:15:00,
2013-10-22 06:20:00,41.3,36.2,30.12,West,270,0.0,-999.0,82,0.00,,,0.00,Wunderground v.1.15,2013-10-22 11:20:00,
2013-10-22 06:25:00,41.3,36.2,30.12,West,270,0.0,-999.0,82,0.00,,,0.00,Wunderground v.1.15,2013-10-22 11:25:00,
2013-10-22 06:30:00,41.3,36.2,30.12,West,270,0.0,-999.0,82,0.00,,,0.00,Wunderground v.1.15,2013-10-22 11:30:00,
2013-10-22 06:35:00,41.3,36.2,30.12,West,270,0.0,-999.0,82,0.00,,,0.00,Wunderground v.1.15,2013-10-22 11:35:00,
2013-10-22 06:40:00,41.3,36.2,30.12,West,270,0.0,-999.0,82,0.00,,,0.00,Wunderground v.1.15,2013-10-22 11:40:00,
2013-10-22 06:45:00,42.0,36.9,30.13,West,270,0.0,-999.0,82,0.00,,,0.00,Wunderground v.1.15,2013-10-22 11:45:00,
2013-10-22 06:50:00,42.0,36.9,30.13,West,270,0.0,-999.0,82,0.00,,,0.00,Wunderground v.1.15,2013-10-22 11:50:00,
2013-10-22 06:55:00,42.0,36.9,30.13,West,270,0.0,-999.0,82,0.00,,,0.00,Wunderground v.1.15,2013-10-22 11:55:00,
2013-10-22 07:00:00,42.0,36.9,30.13,West,270,0.0,-999.0,82,0.00,,,0.00,Wunderground v.1.15,2013-10-22 12:00:00,
2013-10-22 07:05:00,42.0,36.9,30.13,West,270,0.0,-999.0,82,0.00,,,0.00,Wunderground v.1.15,2013-10-22 12:05:00,
2013-10-22 07:10:00,42.0,36.9,30.13,West,270,0.0,-999.0,82,0.00,,,0.00,Wunderground v.1.15,2013-10-22 12:10:00,
2013-10-22 07:15:00,42.8,37.4,30.13,West,270,1.0,-999.0,81,0.00,,,0.00,Wunderground v.1.15,2013-10-22 12:15:00,
2013-10-22 07:20:00,42.8,37.4,30.13,West,270,1.0,-999.0,81,0.00,,,0.00,Wunderground v.1.15,2013-10-22 12:20:00,
2013-10-22 07:25:00,42.8,37.4,30.13,West,270,1.0,-999.0,81,0.00,,,0.00,Wunderground v.1.15,2013-10-22 12:25:00,
2013-10-22 07:30:00,42.8,37.4,30.13,West,270,1.0,-999.0,81,0.00,,,0.00,Wunderground v.1.15,2013-10-22 12:30:00,
2013-10-22 07:35:00,42.8,37.4,30.13,West,270,1.0,-999.0,81,0.00,,,0.00,Wunderground v.1.15,2013-10-22 12:35:00,
2013-10-22 07:40:00,42.8,37.4,30.13,West,270,1.0,-999.0,81,0.00,,,0.00,Wunderground v.1.15,2013-10-22 12:40:00,
2013-10-22 07:45:00,43.1,37.3,30.14,West,270,0.0,-999.0,80,0.00,,,0.00,Wunderground v.1.15,2013-10-22 12:45:00,
2013-10-22 07:50:00,43.1,37.3,30.14,West,270,0.0,-999.0,80,0.00,,,0.00,Wunderground v.1.15,2013-10-22 12:50:00,
2013-10-22 07:55:00,43.1,37.3,30.14,West,270,0.0,-999.0,80,0.00,,,0.00,Wunderground v.1.15,2013-10-22 12:55:00,
2013-10-22 08:00:00,43.1,37.3,30.14,West,270,0.0,-999.0,80,0.00,,,0.00,Wunderground v.1.15,2013-10-22 13:00:00,
2013-10-22 08:10:00,43.1,37.3,30.14,West,270,0.0,-999.0,80,0.00,,,0.00,Wunderground v.1.15,2013-10-22 13:10:00,
2013-10-22 08:15:00,45.5,39.0,30.14,West,270,1.0,-999.0,78,0.00,,,0.00,Wunderground v.1.15,2013-10-22 13:15:00,
2013-10-22 08:34:00,46.0,39.2,30.14,West,274,2.0,2.0,77,0.00,,,0.00,Wunderground v.1.15,2013-10-22 13:34:00,
2013-10-22 08:35:00,46.0,38.9,30.14,West,274,2.0,2.0,76,0.00,,,0.00,Wunderground v.1.15,2013-10-22 13:35:00,
2013-10-22 08:38:00,45.5,39.0,30.14,West,270,1.0,-999.0,78,0.00,,,0.00,Wunderground v.1.15,2013-10-22 13:38:00,
2013-10-22 08:44:00,46.2,39.1,30.15,West,274,1.0,1.0,76,0.00,,,0.00,Wunderground v.1.15,2013-10-22 13:44:00,
2013-10-22 08:49:00,46.3,39.1,30.14,West,275,1.0,4.0,76,0.00,,,0.00,Wunderground v.1.15,2013-10-22 13:49:00,
2013-10-22 08:54:00,46.5,39.3,30.14,West,274,2.0,3.0,76,0.00,,,0.00,Wunderground v.1.15,2013-10-22 13:54:00,
2013-10-22 09:00:00,46.7,39.5,30.14,West,274,2.0,2.0,76,0.00,,,0.00,Wunderground v.1.15,2013-10-22 14:00:00,
2013-10-22 09:05:00,46.9,39.7,30.14,West,274,2.0,4.0,76,0.00,,,0.00,Wunderground v.1.15,2013-10-22 14:05:00,
2013-10-22 09:10:00,47.1,39.6,30.15,West,274,3.0,3.0,75,0.00,,,0.00,Wunderground v.1.15,2013-10-22 14:10:00,
2013-10-22 09:15:00,47.3,39.8,30.15,West,274,3.0,3.0,75,0.00,,,0.00,Wunderground v.1.15,2013-10-22 14:15:00,
2013-10-22 09:21:00,47.7,40.2,30.16,West,274,2.0,2.0,75,0.00,,,0.00,Wunderground v.1.15,2013-10-22 14:21:00,
2013-10-22 09:27:00,48.1,40.2,30.15,West,274,1.0,6.0,74,0.00,,,0.00,Wunderground v.1.15,2013-10-22 14:27:00,
2013-10-22 09:32:00,48.3,40.0,30.16,West,274,3.0,4.0,73,0.00,,,0.00,Wunderground v.1.15,2013-10-22 14:32:00,
2013-10-22 09:38:00,48.6,40.0,30.16,West,275,3.0,6.0,72,0.00,,,0.00,Wunderground v.1.15,2013-10-22 14:38:00,
2013-10-22 09:43:00,48.8,40.2,30.17,West,274,3.0,4.0,72,0.00,,,0.00,Wunderground v.1.15,2013-10-22 14:43:00,
2013-10-22 09:48:00,48.9,40.3,30.17,West,274,2.0,4.0,72,0.00,,,0.00,Wunderground v.1.15,2013-10-22 14:48:00,
2013-10-22 09:54:00,49.0,40.4,30.17,West,274,2.0,4.0,72,0.00,,,0.00,Wunderground v.1.15,2013-10-22 14:54:00,
2013-10-22 09:59:00,49.1,40.5,30.17,West,274,3.0,4.0,72,0.00,,,0.00,Wunderground v.1.15,2013-10-22 14:59:00,
2013-10-22 10:04:00,49.2,40.2,30.17,West,274,4.0,7.0,71,0.00,,,0.00,Wunderground v.1.15,2013-10-22 15:04:00,
2013-10-22 10:09:00,49.7,40.3,30.17,West,275,4.0,8.0,70,0.00,,,0.00,Wunderground v.1.15,2013-10-22 15:09:00,
2013-10-22 10:15:00,50.0,40.6,30.17,West,275,4.0,7.0,70,0.00,,,0.00,Wunderground v.1.15,2013-10-22 15:15:00,
2013-10-22 10:20:00,50.3,40.5,30.16,West,275,4.0,4.0,69,0.00,,,0.00,Wunderground v.1.15,2013-10-22 15:20:00,
2013-10-22 10:26:00,50.5,40.3,30.16,West,277,4.0,5.0,68,0.00,,,0.00,Wunderground v.1.15,2013-10-22 15:26:00,
2013-10-22 10:31:00,50.7,40.5,30.17,WNW,290,4.0,5.0,68,0.00,,,0.00,Wunderground v.1.15,2013-10-22 15:31:00,
2013-10-22 10:36:00,51.2,41.0,30.17,WNW,292,4.0,7.0,68,0.00,,,0.00,Wunderground v.1.15,2013-10-22 15:36:00,
2013-10-22 10:42:00,51.9,41.3,30.17,WNW,299,4.0,6.0,67,0.00,,,0.00,Wunderground v.1.15,2013-10-22 15:42:00,
2013-10-22 10:47:00,52.5,41.1,30.17,NW,317,5.0,6.0,65,0.00,,,0.00,Wunderground v.1.15,2013-10-22 15:47:00,
2013-10-22 10:53:00,52.9,41.0,30.17,WNW,300,5.0,7.0,64,0.00,,,0.00,Wunderground v.1.15,2013-10-22 15:53:00,
2013-10-22 10:58:00,53.4,40.7,30.17,NW,316,6.0,8.0,62,0.00,,,0.00,Wunderground v.1.15,2013-10-22 15:58:00,
2013-10-22 11:03:00,53.7,40.6,30.17,NW,315,8.0,12.0,61,0.00,,,0.00,Wunderground v.1.15,2013-10-22 16:03:00,
2013-10-22 11:09:00,53.9,40.3,30.17,NNW,327,9.0,12.0,60,0.00,,,0.00,Wunderground v.1.15,2013-10-22 16:09:00,
2013-10-22 11:15:00,54.1,40.1,30.17,NNW,327,9.0,13.0,59,0.00,,,0.00,Wunderground v.1.15,2013-10-22 16:15:00,
2013-10-22 11:20:00,54.1,39.2,30.17,NW,321,10.0,10.0,57,0.00,,,0.00,Wunderground v.1.15,2013-10-22 16:20:00,
2013-10-22 11:26:00,54.5,39.1,30.17,NW,316,11.0,15.0,56,0.00,,,0.00,Wunderground v.1.15,2013-10-22 16:26:00,
2013-10-22 11:31:00,54.4,39.5,30.17,NNW,339,11.0,13.0,57,0.00,,,0.00,Wunderground v.1.15,2013-10-22 16:31:00,
2013-10-22 11:37:00,54.4,39.9,30.17,NNW,332,10.0,13.0,58,0.00,,,0.00,Wunderground v.1.15,2013-10-22 16:37:00,
2013-10-22 11:42:00,54.8,40.3,30.17,NW,312,10.0,12.0,58,0.00,,,0.00,Wunderground v.1.15,2013-10-22 16:42:00,
2013-10-22 11:47:00,54.8,40.3,30.17,NNW,329,10.0,14.0,58,0.00,,,0.00,Wunderground v.1.15,2013-10-22 16:47:00,
2013-10-22 11:52:00,55.0,40.5,30.17,NW,326,9.0,11.0,58,0.00,,,0.00,Wunderground v.1.15,2013-10-22 16:52:00,
2013-10-22 11:58:00,55.3,40.3,30.18,WNW,302,10.0,14.0,57,0.00,,,0.00,Wunderground v.1.15,2013-10-22 16:58:00,
2013-10-22 12:03:00,55.1,40.1,30.18,NNW,327,11.0,16.0,57,0.00,,,0.00,Wunderground v.1.15,2013-10-22 17:03:00,
2013-10-22 12:09:00,54.7,39.8,30.17,NW,307,11.0,17.0,57,0.00,,,0.00,Wunderground v.1.15,2013-10-22 17:09:00,
2013-10-22 12:15:00,54.7,40.2,30.17,NW,319,12.0,23.0,58,0.00,,,0.00,Wunderground v.1.15,2013-10-22 17:15:00,
2013-10-22 12:20:00,55.1,39.7,30.17,WNW,298,11.0,11.0,56,0.00,,,0.00,Wunderground v.1.15,2013-10-22 17:20:00,
2013-10-22 12:26:00,54.9,39.9,30.17,NNW,334,12.0,17.0,57,0.00,,,0.00,Wunderground v.1.15,2013-10-22 17:26:00,
2013-10-22 12:31:00,55.1,40.1,30.17,NW,325,12.0,17.0,57,0.00,,,0.00,Wunderground v.1.15,2013-10-22 17:31:00,
2013-10-22 12:37:00,55.5,40.5,30.17,NW,313,13.0,17.0,57,0.00,,,0.00,Wunderground v.1.15,2013-10-22 17:37:00,
2013-10-22 12:42:00,55.4,40.0,30.17,NNW,333,13.0,13.0,56,0.00,,,0.00,Wunderground v.1.15,2013-10-22 17:42:00,
2013-10-22 12:47:00,56.0,41.0,30.17,NNW,331,11.0,17.0,57,0.00,,,0.00,Wunderground v.1.15,2013-10-22 17:47:00,
2013-10-22 12:53:00,56.4,40.4,30.17,NNW,343,11.0,13.0,55,0.00,,,0.00,Wunderground v.1.15,2013-10-22 17:53:00,
2013-10-22 12:58:00,56.3,40.3,30.16,NW,315,11.0,18.0,55,0.00,,,0.00,Wunderground v.1.15,2013-10-22 17:58:00,
2013-10-22 13:03:00,56.2,40.2,30.16,NW,309,13.0,19.0,55,0.00,,,0.00,Wunderground v.1.15,2013-10-22 18:03:00,
2013-10-22 13:09:00,56.5,40.5,30.16,NNW,340,13.0,19.0,55,0.00,,,0.00,Wunderground v.1.15,2013-10-22 18:09:00,
2013-10-22 13:14:00,56.8,40.8,30.16,NW,311,11.0,14.0,55,0.00,,,0.00,Wunderground v.1.15,2013-10-22 18:14:00,
2013-10-22 13:19:00,56.9,40.9,30.16,NW,318,10.0,16.0,55,0.00,,,0.00,Wunderground v.1.15,2013-10-22 18:19:00,
2013-10-22 13:24:00,56.6,40.6,30.16,NNW,330,11.0,13.0,55,0.00,,,0.00,Wunderground v.1.15,2013-10-22 18:24:00,
2013-10-22 13:30:00,56.9,40.9,30.16,NNW,330,11.0,13.0,55,0.00,,,0.00,Wunderground v.1.15,2013-10-22 18:30:00,
2013-10-22 13:35:00,56.7,40.7,30.16,NW,316,10.0,14.0,55,0.00,,,0.00,Wunderground v.1.15,2013-10-22 18:35:00,
2013-10-22 13:41:00,56.7,41.2,30.16,NW,312,11.0,18.0,56,0.00,,,0.00,Wunderground v.1.15,2013-10-22 18:41:00,
2013-10-22 13:46:00,56.6,41.1,30.15,NNW,329,11.0,18.0,56,0.00,,,0.00,Wunderground v.1.15,2013-10-22 18:46:00,
2013-10-22 13:52:00,56.7,41.2,30.15,NW,315,12.0,23.0,56,0.00,,,0.00,Wunderground v.1.15,2013-10-22 18:52:00,
2013-10-22 13:57:00,57.0,41.4,30.15,NNW,333,13.0,23.0,56,0.00,,,0.00,Wunderground v.1.15,2013-10-22 18:57:00,
2013-10-22 14:02:00,57.4,41.4,30.15,NW,325,12.0,14.0,55,0.00,,,0.00,Wunderground v.1.15,2013-10-22 19:02:00,
2013-10-22 14:08:00,57.5,41.4,30.15,NW,317,11.0,14.0,55,0.00,,,0.00,Wunderground v.1.15,2013-10-22 19:08:00,
2013-10-22 14:13:00,57.4,41.4,30.15,NW,319,10.0,10.0,55,0.00,,,0.00,Wunderground v.1.15,2013-10-22 19:13:00,
2013-10-22 14:18:00,57.5,41.4,30.14,NNW,344,9.0,11.0,55,0.00,,,0.00,Wunderground v.1.15,2013-10-22 19:18:00,
2013-10-22 14:24:00,58.0,41.4,30.14,NW,315,11.0,14.0,54,0.00,,,0.00,Wunderground v.1.15,2013-10-22 19:24:00,
2013-10-22 14:30:00,58.1,41.5,30.14,NW,316,13.0,13.0,54,0.00,,,0.00,Wunderground v.1.15,2013-10-22 19:30:00,
2013-10-22 14:35:00,58.2,41.1,30.14,NW,323,12.0,20.0,53,0.00,,,0.00,Wunderground v.1.15,2013-10-22 19:35:00,
2013-10-22 14:40:00,57.7,40.7,30.14,NW,316,11.0,11.0,53,0.00,,,0.00,Wunderground v.1.15,2013-10-22 19:40:00,
2013-10-22 14:46:00,57.3,40.3,30.14,NW,324,10.0,13.0,53,0.00,,,0.00,Wunderground v.1.15,2013-10-22 19:46:00,
2013-10-22 14:51:00,57.6,40.6,30.14,NW,309,11.0,14.0,53,0.00,,,0.00,Wunderground v.1.15,2013-10-22 19:51:00,
2013-10-22 14:56:00,57.8,39.8,30.14,NNW,338,12.0,16.0,51,0.00,,,0.00,Wunderground v.1.15,2013-10-22 19:56:00,
2013-10-22 15:02:00,58.3,40.2,30.13,NW,312,11.0,14.0,51,0.00,,,0.00,Wunderground v.1.15,2013-10-22 20:02:00,
2013-10-22 15:07:00,59.0,40.4,30.14,NNW,333,11.0,14.0,50,0.00,,,0.00,Wunderground v.1.15,2013-10-22 20:07:00,
2013-10-22 15:12:00,59.5,40.3,30.14,WNW,296,11.0,13.0,49,0.00,,,0.00,Wunderground v.1.15,2013-10-22 20:12:00,
2013-10-22 15:18:00,59.8,41.1,30.13,North,355,11.0,16.0,50,0.00,,,0.00,Wunderground v.1.15,2013-10-22 20:18:00,
2013-10-22 15:23:00,59.0,39.9,30.14,North,351,10.0,13.0,49,0.00,,,0.00,Wunderground v.1.15,2013-10-22 20:23:00,
2013-10-22 15:28:00,59.0,40.4,30.14,NNW,346,9.0,13.0,50,0.00,,,0.00,Wunderground v.1.15,2013-10-22 20:28:00,
2013-10-22 15:34:00,59.0,39.9,30.14,NNW,327,8.0,14.0,49,0.00,,,0.00,Wunderground v.1.15,2013-10-22 20:34:00,
2013-10-22 15:39:00,59.0,40.4,30.13,NNW,334,9.0,14.0,50,0.00,,,0.00,Wunderground v.1.15,2013-10-22 20:39:00,
2013-10-22 15:45:00,58.6,39.0,30.14,NW,317,9.0,14.0,48,0.00,,,0.00,Wunderground v.1.15,2013-10-22 20:45:00,
2013-10-22 15:50:00,58.9,38.7,30.13,NW,321,11.0,11.0,47,0.00,,,0.00,Wunderground v.1.15,2013-10-22 20:50:00,
2013-10-22 15:56:00,59.2,39.0,30.14,NW,320,12.0,19.0,47,0.00,,,0.00,Wunderground v.1.15,2013-10-22 20:56:00,
2013-10-22 16:01:00,59.4,38.6,30.14,North,11,10.0,10.0,46,0.00,,,0.00,Wunderground v.1.15,2013-10-22 21:01:00,
2013-10-22 16:07:00,59.3,37.9,30.14,NNW,338,9.0,12.0,45,0.00,,,0.00,Wunderground v.1.15,2013-10-22 21:07:00,
2013-10-22 16:12:00,59.7,38.3,30.14,NW,321,10.0,11.0,45,0.00,,,0.00,Wunderground v.1.15,2013-10-22 21:12:00,
2013-10-22 16:17:00,59.9,37.9,30.14,NW,326,9.0,13.0,44,0.00,,,0.00,Wunderground v.1.15,2013-10-22 21:17:00,
2013-10-22 16:22:00,60.1,37.5,30.14,NNW,340,10.0,10.0,43,0.00,,,0.00,Wunderground v.1.15,2013-10-22 21:22:00,
2013-10-22 16:28:00,60.0,38.0,30.14,NW,314,9.0,13.0,44,0.00,,,0.00,Wunderground v.1.15,2013-10-22 21:28:00,
2013-10-22 16:33:00,60.0,37.4,30.15,North,355,10.0,15.0,43,0.00,,,0.00,Wunderground v.1.15,2013-10-22 21:33:00,
2013-10-22 16:39:00,60.2,37.6,30.15,NNW,340,10.0,15.0,43,0.00,,,0.00,Wunderground v.1.15,2013-10-22 21:39:00,
2013-10-22 16:44:00,59.8,37.2,30.15,NNW,346,8.0,9.0,43,0.00,,,0.00,Wunderground v.1.15,2013-10-22 21:44:00,
2013-10-22 16:50:00,59.0,37.1,30.15,NW,321,7.0,7.0,44,0.00,,,0.00,Wunderground v.1.15,2013-10-22 21:50:00,
2013-10-22 16:55:00,59.0,37.1,30.15,NW,323,7.0,8.0,44,0.00,,,0.00,Wunderground v.1.15,2013-10-22 21:55:00,
2013-10-22 17:01:00,59.0,37.1,30.15,North,360,7.0,10.0,44,0.00,,,0.00,Wunderground v.1.15,2013-10-22 22:01:00,
2013-10-22 17:06:00,58.8,37.5,30.16,NNW,344,7.0,11.0,45,0.00,,,0.00,Wunderground v.1.15,2013-10-22 22:06:00,
2013-10-22 17:11:00,59.0,37.1,30.16,NW,313,6.0,8.0,44,0.00,,,0.00,Wunderground v.1.15,2013-10-22 22:11:00,
2013-10-22 17:17:00,58.4,36.6,30.16,NNW,329,7.0,12.0,44,0.00,,,0.00,Wunderground v.1.15,2013-10-22 22:17:00,
2013-10-22 17:22:00,58.3,36.5,30.16,NW,319,8.0,8.0,44,0.00,,,0.00,Wunderground v.1.15,2013-10-22 22:22:00,
2013-10-22 17:27:00,58.4,36.6,30.16,NNW,346,8.0,9.0,44,0.00,,,0.00,Wunderground v.1.15,2013-10-22 22:27:00,
2013-10-22 17:33:00,58.2,36.9,30.16,NNW,344,8.0,10.0,45,0.00,,,0.00,Wunderground v.1.15,2013-10-22 22:33:00,
2013-10-22 17:38:00,57.8,36.6,30.16,North,355,7.0,10.0,45,0.00,,,0.00,Wunderground v.1.15,2013-10-22 22:38:00,
2013-10-22 17:43:00,57.7,36.5,30.16,NNW,333,6.0,8.0,45,0.00,,,0.00,Wunderground v.1.15,2013-10-22 22:43:00,
2013-10-22 17:48:00,57.6,36.4,30.16,NNW,333,5.0,8.0,45,0.00,,,0.00,Wunderground v.1.15,2013-10-22 22:48:00,
2013-10-22 17:54:00,57.6,36.4,30.16,NNW,342,4.0,6.0,45,0.00,,,0.00,Wunderground v.1.15,2013-10-22 22:54:00,
2013-10-22 17:59:00,57.7,36.5,30.16,NW,323,5.0,7.0,45,0.00,,,0.00,Wunderground v.1.15,2013-10-22 22:59:00,
2013-10-22 18:05:00,57.6,36.4,30.15,NW,323,5.0,6.0,45,0.00,,,0.00,Wunderground v.1.15,2013-10-22 23:05:00,
2013-10-22 18:10:00,57.6,36.4,30.16,NNW,338,6.0,9.0,45,0.00,,,0.00,Wunderground v.1.15,2013-10-22 23:10:00,
2013-10-22 18:15:00,57.5,36.3,30.17,North,355,7.0,9.0,45,0.00,,,0.00,Wunderground v.1.15,2013-10-22 23:15:00,
2013-10-22 18:21:00,57.3,35.6,30.16,NW,313,7.0,8.0,44,0.00,,,0.00,Wunderground v.1.15,2013-10-22 23:21:00,
2013-10-22 18:26:00,57.1,35.4,30.17,NW,320,8.0,11.0,44,0.00,,,0.00,Wunderground v.1.15,2013-10-22 23:26:00,
2013-10-22 18:31:00,56.8,35.7,30.17,NW,320,7.0,7.0,45,0.00,,,0.00,Wunderground v.1.15,2013-10-22 23:31:00,
2013-10-22 18:37:00,56.3,35.8,30.17,NW,320,5.0,7.0,46,0.00,,,0.00,Wunderground v.1.15,2013-10-22 23:37:00,
2013-10-22 18:42:00,55.9,36.5,30.17,NW,320,4.0,4.0,48,0.00,,,0.00,Wunderground v.1.15,2013-10-22 23:42:00,
2013-10-22 18:47:00,55.6,36.2,30.17,NW,325,4.0,5.0,48,0.00,,,0.00,Wunderground v.1.15,2013-10-22 23:47:00,
2013-10-22 18:53:00,55.3,35.9,30.17,NNW,338,4.0,4.0,48,0.00,,,0.00,Wunderground v.1.15,2013-10-22 23:53:00,
2013-10-22 18:58:00,55.1,35.2,30.17,NNW,342,5.0,7.0,47,0.00,,,0.00,Wunderground v.1.15,2013-10-22 23:58:00,
2013-10-22 19:03:00,54.9,34.5,30.17,NNW,330,5.0,5.0,46,0.00,,,0.00,Wunderground v.1.15,2013-10-23 00:03:00,
2013-10-22 19:09:00,54.8,33.8,30.17,NNW,328,5.0,7.0,45,0.00,,,0.00,Wunderground v.1.15,2013-10-23 00:09:00,
2013-10-22 19:14:00,54.6,33.7,30.17,NNW,329,5.0,7.0,45,0.00,,,0.00,Wunderground v.1.15,2013-10-23 00:14:00,
2013-10-22 19:20:00,54.5,33.6,30.18,NW,325,5.0,5.0,45,0.00,,,0.00,Wunderground v.1.15,2013-10-23 00:20:00,
2013-10-22 19:25:00,54.4,33.5,30.18,NW,325,5.0,6.0,45,0.00,,,0.00,Wunderground v.1.15,2013-10-23 00:25:00,
2013-10-22 19:31:00,54.2,33.3,30.18,NW,325,5.0,5.0,45,0.00,,,0.00,Wunderground v.1.15,2013-10-23 00:31:00,
2013-10-22 19:36:00,53.9,33.6,30.18,NW,325,4.0,5.0,46,0.00,,,0.00,Wunderground v.1.15,2013-10-23 00:36:00,
2013-10-22 19:41:00,53.7,33.9,30.18,NW,325,3.0,4.0,47,0.00,,,0.00,Wunderground v.1.15,2013-10-23 00:41:00,
2013-10-22 19:47:00,53.6,33.8,30.18,NW,325,3.0,4.0,47,0.00,,,0.00,Wunderground v.1.15,2013-10-23 00:47:00,
2013-10-22 19:52:00,53.6,33.8,30.18,NW,325,3.0,4.0,47,0.00,,,0.00,Wunderground v.1.15,2013-10-23 00:52:00,
2013-10-22 19:57:00,53.5,33.7,30.18,NW,325,3.0,4.0,47,0.00,,,0.00,Wunderground v.1.15,2013-10-23 00:57:00,
2013-10-22 20:03:00,53.4,33.7,30.18,NW,325,3.0,5.0,47,0.00,,,0.00,Wunderground v.1.15,2013-10-23 01:03:00,
2013-10-22 20:08:00,53.3,33.6,30.18,NNW,333,4.0,6.0,47,0.00,,,0.00,Wunderground v.1.15,2013-10-23 01:08:00,
2013-10-22 20:13:00,53.1,33.9,30.18,NNW,333,3.0,4.0,48,0.00,,,0.00,Wunderground v.1.15,2013-10-23 01:13:00,
2013-10-22 20:19:00,53.0,33.8,30.18,NNW,333,3.0,7.0,48,0.00,,,0.00,Wunderground v.1.15,2013-10-23 01:19:00,
2013-10-22 20:24:00,53.0,33.3,30.19,NNW,333,4.0,6.0,47,0.00,,,0.00,Wunderground v.1.15,2013-10-23 01:24:00,
2013-10-22 20:30:00,52.9,33.7,30.19,NNW,333,4.0,4.0,48,0.00,,,0.00,Wunderground v.1.15,2013-10-23 01:30:00,
2013-10-22 20:35:00,52.6,33.5,30.19,NNW,333,4.0,4.0,48,0.00,,,0.00,Wunderground v.1.15,2013-10-23 01:35:00,
2013-10-22 20:40:00,52.2,33.6,30.19,NNW,333,4.0,4.0,49,0.00,,,0.00,Wunderground v.1.15,2013-10-23 01:40:00,
2013-10-22 20:46:00,51.6,33.6,30.19,NNW,333,3.0,4.0,50,0.00,,,0.00,Wunderground v.1.15,2013-10-23 01:46:00,
2013-10-22 20:51:00,51.1,33.6,30.19,NNW,333,2.0,4.0,51,0.00,,,0.00,Wunderground v.1.15,2013-10-23 01:51:00,
2013-10-22 20:57:00,50.5,33.5,30.19,NNW,333,1.0,4.0,52,0.00,,,0.00,Wunderground v.1.15,2013-10-23 01:57:00,
2013-10-22 21:02:00,49.8,33.3,30.19,NNW,333,2.0,4.0,53,0.00,,,0.00,Wunderground v.1.15,2013-10-23 02:02:00,
2013-10-22 21:07:00,49.4,33.0,30.19,NNW,333,2.0,4.0,53,0.00,,,0.00,Wunderground v.1.15,2013-10-23 02:07:00,
2013-10-22 21:13:00,49.2,33.7,30.19,NNW,333,1.0,4.0,55,0.00,,,0.00,Wunderground v.1.15,2013-10-23 02:13:00,
2013-10-22 21:18:00,48.6,33.1,30.20,NNW,333,0.0,4.0,55,0.00,,,0.00,Wunderground v.1.15,2013-10-23 02:18:00,
2013-10-22 21:23:00,48.0,33.0,30.20,NNW,333,1.0,4.0,56,0.00,,,0.00,Wunderground v.1.15,2013-10-23 02:23:00,
2013-10-22 21:29:00,47.5,33.0,30.20,NNW,333,2.0,4.0,57,0.00,,,0.00,Wunderground v.1.15,2013-10-23 02:29:00,
2013-10-22 21:34:00,47.2,32.7,30.19,NNW,333,2.0,4.0,57,0.00,,,0.00,Wunderground v.1.15,2013-10-23 02:34:00,
2013-10-22 21:40:00,46.9,32.9,30.19,NNW,333,2.0,4.0,58,0.00,,,0.00,Wunderground v.1.15,2013-10-23 02:40:00,
2013-10-22 21:45:00,46.9,33.7,30.19,NNW,333,2.0,4.0,60,0.00,,,0.00,Wunderground v.1.15,2013-10-23 02:45:00,
2013-10-22 21:50:00,46.8,34.0,30.20,NNW,333,1.0,1.0,61,0.00,,,0.00,Wunderground v.1.15,2013-10-23 02:50:00,
2013-10-22 21:56:00,46.5,34.2,30.20,NNW,333,0.0,4.0,62,0.00,,,0.00,Wunderground v.1.15,2013-10-23 02:56:00,
2013-10-22 22:01:00,46.1,33.4,30.20,NNW,333,1.0,4.0,61,0.00,,,0.00,Wunderground v.1.15,2013-10-23 03:01:00,
2013-10-22 22:07:00,46.1,33.4,30.20,NNW,333,1.0,4.0,61,0.00,,,0.00,Wunderground v.1.15,2013-10-23 03:07:00,
2013-10-22 22:12:00,46.0,33.3,30.20,NNW,333,0.0,4.0,61,0.00,,,0.00,Wunderground v.1.15,2013-10-23 03:12:00,
2013-10-22 22:17:00,45.9,33.6,30.20,NNW,333,1.0,4.0,62,0.00,,,0.00,Wunderground v.1.15,2013-10-23 03:17:00,
2013-10-22 22:23:00,45.7,33.4,30.20,NE,54,2.0,5.0,62,0.00,,,0.00,Wunderground v.1.15,2013-10-23 03:23:00,
2013-10-22 22:28:00,45.5,33.6,30.20,ENE,59,3.0,5.0,63,0.00,,,0.00,Wunderground v.1.15,2013-10-23 03:28:00,
2013-10-22 22:34:00,45.2,34.1,30.20,ENE,63,4.0,5.0,65,0.00,,,0.00,Wunderground v.1.15,2013-10-23 03:34:00,
2013-10-22 22:39:00,45.0,34.3,30.20,ENE,63,3.0,5.0,66,0.00,,,0.00,Wunderground v.1.15,2013-10-23 03:39:00,
2013-10-22 22:44:00,44.7,34.4,30.20,ENE,63,1.0,4.0,67,0.00,,,0.00,Wunderground v.1.15,2013-10-23 03:44:00,
2013-10-22 22:50:00,44.5,34.2,30.20,ENE,63,2.0,4.0,67,0.00,,,0.00,Wunderground v.1.15,2013-10-23 03:50:00,
2013-10-22 22:55:00,44.2,34.3,30.20,ENE,63,2.0,4.0,68,0.00,,,0.00,Wunderground v.1.15,2013-10-23 03:55:00,
2013-10-22 23:00:00,43.8,34.3,30.20,ENE,63,3.0,3.0,69,0.00,,,0.00,Wunderground v.1.15,2013-10-23 04:00:00,
2013-10-22 23:01:00,43.8,34.3,30.20,ENE,64,3.0,4.0,69,0.00,,,0.00,Wunderground v.1.15,2013-10-23 04:01:00,
2013-10-22 23:02:00,43.8,34.3,30.20,ENE,64,3.0,4.0,69,0.00,,,0.00,Wunderground v.1.15,2013-10-23 04:02:00,
2013-10-22 23:03:00,43.8,34.3,30.20,ENE,64,3.0,4.0,69,0.00,,,0.00,Wunderground v.1.15,2013-10-23 04:03:00,
2013-10-22 23:08:00,43.6,34.1,30.20,ENE,64,3.0,5.0,69,0.00,,,0.00,Wunderground v.1.15,2013-10-23 04:08:00,
2013-10-22 23:13:00,43.3,34.5,30.20,ENE,64,3.0,4.0,71,0.00,,,0.00,Wunderground v.1.15,2013-10-23 04:13:00,
2013-10-22 23:15:00,43.3,34.5,30.20,ENE,64,3.0,4.0,71,0.00,,,0.00,Wunderground v.1.15,2013-10-23 04:15:00,
2013-10-22 23:21:00,43.1,34.3,30.19,ENE,64,2.0,4.0,71,0.00,,,0.00,Wunderground v.1.15,2013-10-23 04:21:00,
2013-10-22 23:22:00,43.1,34.7,30.20,ENE,64,2.0,4.0,72,0.00,,,0.00,Wunderground v.1.15,2013-10-23 04:22:00,
2013-10-22 23:28:00,42.9,34.5,30.21,ENE,64,2.0,4.0,72,0.00,,,0.00,Wunderground v.1.15,2013-10-23 04:28:00,
2013-10-22 23:34:00,42.7,34.3,30.20,ENE,68,3.0,4.0,72,0.00,,,0.00,Wunderground v.1.15,2013-10-23 04:34:00,
2013-10-22 23:39:00,42.6,34.2,30.20,ENE,68,3.0,4.0,72,0.00,,,0.00,Wunderground v.1.15,2013-10-23 04:39:00,
2013-10-22 23:44:00,42.5,34.5,30.20,ENE,69,3.0,4.0,73,0.00,,,0.00,Wunderground v.1.15,2013-10-23 04:44:00,
2013-10-22 23:50:00,42.3,34.3,30.21,ENE,69,3.0,3.0,73,0.00,,,0.00,Wunderground v.1.15,2013-10-23 04:50:00,
2013-10-22 23:55:00,42.1,34.1,30.21,ENE,69,2.0,4.0,73,0.00,,,0.00,Wunderground v.1.15,2013-10-23 04:55:00,